Weather in Baku

Azerbaijan     40˚22′08″N   49˚50′06″E
temp.,
°C
wind,
m/s
gust,
m/s
humid.,
%
clouds,
%
prec.,
mm/h
press.,
hPa
HPBL,
m
2 december, wed
wed201:00+9˚nne117233 0.0 1025157
04:00+9˚nne117417 0.0 1025167
07:00+9˚n33770 0.0 1026246
10:00+10˚n33780 0.0 1027362
13:00+11˚nne446612 0.0 1026617
16:00+12˚nne556331 0.0 1026598
19:00+11˚n577646 0.0 1027386
22:00+10˚n798322 0.0 1028462
3 december, thu
thu301:00+10˚n698246 0.0 1028466
04:00+10˚ne688239 0.0 1028469
07:00+9˚ne56796 0.0 1029494
10:00+9˚ne557521 0.0 1030555
13:00+10˚ne55682 0.0 1030628
16:00+11˚ne446613 0.0 1029787
19:00+9˚ene557522 0.0 1030459
22:00+9˚ene557427 0.0 1030412
4 december, fri
fri401:00+9˚ene447085 0.0 1030481
04:00+9˚ene337360 0.0 1029490
07:00+9˚ene347351 0.0 1029406
10:00+10˚e336862 0.0 1030530
13:00+10˚e336978 0.0 1028491
16:00+10˚e447489 0.1 1027440
19:00+10˚ene3481100 0.8 1027377
22:00+10˚se2588100 4.1 1027434
5 december, sat
sat501:00+11˚se5682100 2.6 1027562
04:00+11˚ese7880100 4.0 1026607
07:00+11˚ese7883100 1.6 1026552
10:00+11˚ese788099 1.8 1027689
13:00+11˚e678198 0.8 1026572
16:00+10˚e677799 2.1 1026477
19:00+9˚ene7773100 0.1 1026454
22:00+9˚ne7867100 0.1 1027591
6 december, sun
sun601:00+9˚ne896787 0.0 1027620
04:00+8˚ne896789 0.0 1027636
07:00+8˚ne896996 0.0 1027709
10:00+8˚ne9107198 0.0 1028825
13:00+8˚ne896399 0.0 10281076
16:00+8˚nne896386 0.0 10281036
19:00+7˚nne8106398 0.0 1029832
22:00+7˚nne795999 0.0 1029850